Notices

What's New in latest Release from April 7th, 2021:

- Updated Glossary, including Speed of Maximum Gust, and Total Hourly Precipitation

- Updated national and regional climate services offices contacts and prices information

- Addition of station inventory lists for 1981-2010, 1971-2000, and 1961-1990 Normals.

If you haven't already, please take our survey and provide feedback about our website: https://eccc.sondage-survey.ca/f/LanguageSelection.aspx?s=442ca660-fcf1-47c0-95a9-59707d6fd709

Hourly Data Report for July 14, 2016

TORONTO CITY
ONTARIO

43°40'00.000" N
79°24'00.000" W
112.50 m
6158355
71508
XTO

Download Data

Hourly Data (July 2016)
Hourly Data Report for July 14, 2016
TIME
LST
Temp Definition
°C
Dew Point Definition
°C
Rel Hum Definition
%
Precip. Amount Definition
mm

Wind Dir Definition
10's deg

Wind Spd Definition
km/h
Visibility Definition
km
Stn Press Definition
kPa
Hmdx Definition


Wind Chill Definition


Weather Definition


00:00 24.1 18.5 71 0.0 LegendMM LegendMM   99.75 30   LegendNANA
01:00 21.0 19.1 89 5.1 LegendMM LegendMM   99.54 28   LegendNANA
02:00 21.1 19.2 89 0.3 LegendMM LegendMM   99.49 28   LegendNANA
03:00 20.8 19.1 90 0.0 LegendMM LegendMM   99.45 28   LegendNANA
04:00 21.5 19.4 88 0.0 LegendMM LegendMM   99.37 29   LegendNANA
05:00 21.8 19.8 89 0.0 LegendMM LegendMM   99.35 29   LegendNANA
06:00 21.7 19.8 89 0.0 LegendMM LegendMM   99.35 29   LegendNANA
07:00 21.6 20.1 91 0.6 LegendMM LegendMM   99.39 29   LegendNANA
08:00 21.4 20.0 92 0.4 LegendMM LegendMM   99.38 29   LegendNANA
09:00 21.9 20.2 90 0.0 LegendMM LegendMM   99.42 30   LegendNANA
10:00 22.4 19.7 85 0.0 LegendMM LegendMM   99.45 30   LegendNANA
11:00 22.8 19.1 80 0.0 LegendMM LegendMM   99.46 30   LegendNANA
12:00 25.1 20.4 75 0.0 LegendMM LegendMM   99.47 33   LegendNANA
13:00 27.5 20.6 66 0.0 LegendMM LegendMM   99.42 36   LegendNANA
14:00 26.7 19.8 66 0.0 LegendMM LegendMM   99.38 34   LegendNANA
15:00 25.7 19.5 69 0.0 LegendMM LegendMM   99.34 33   LegendNANA
16:00 26.8 19.7 65 0.0 LegendMM LegendMM   99.33 34   LegendNANA
17:00 26.9 19.0 62 0.0 LegendMM LegendMM   99.30 34   LegendNANA
18:00 25.9 18.3 63 0.0 LegendMM LegendMM   99.31 32   LegendNANA
19:00 24.8 19.9 74 0.0 LegendMM LegendMM   99.35 32   LegendNANA
20:00 24.3 16.7 63 0.0 LegendMM LegendMM   99.41 29   LegendNANA
21:00 20.9 17.9 83 3.7 LegendMM LegendMM   99.50 27   LegendNANA
22:00 19.9 17.4 85 0.0 LegendMM LegendMM   99.49     LegendNANA
23:00 20.2 18.2 88 0.0 LegendMM LegendMM   99.54 26   LegendNANA

Notes on Data Quality.

Legend

  • E = Estimated
  • M = Missing
  • NA = Not Available*
  • [empty] = Indicates an unobserved value
Date modified: